427  
ASUS41 KOKX 271205  
RWROKX  
 
REGIONAL WEATHER ROUNDUP  
NATIONAL WEATHER SERVICE NEW YORK NY  
700 AM EST THU FEB 27 2020  
 
NOTE: "FAIR" INDICATES FEW OR NO CLOUDS BELOW 12,000 FEET WITH NO  
SIGNIFICANT WEATHER AND/OR S TO VISIBILITY
.  
 
NYZ071-072-176-178-NJZ106-104-271300-  
NEW YORK CITY METRO AREA  
 
CITY SKY/WX TMP DP RH WIND PRES REMARKS
 
CENTRAL PARK CLOUDY 42 36 79 SW13G22 29.38R  
BRONX LEHMAN C N/A 43 37 81 W16G31 N/A  
LAGUARDIA ARPT CLOUDY 44 36 73 W21G33 29.35R  
QUEENS COLLEGE N/A 43 36 75 W28G40 N/A  
KENNEDY INTL MOCLDY 43 39 86 W30G38 29.38R  
BREEZY POINT N/A 43 N/A N/A W20G33 N/A  
BROOKLYN COLL N/A 43 36 75 SW21 N/A  
STATEN ISLAND N/A 41 36 81 W18G30 N/A  
NEWARK/LIBERTY MOCLDY 42 36 79 W20G36 29.39R  
TETERBORO CLOUDY 42 36 79 W18G28 29.35R  

 
 
NYZ177-179-078>081-271300-  
LONG ISLAND NEW YORK  
 
CITY SKY/WX TMP DP RH WIND PRES REMARKS
 
JONES BEACH N/A 43 N/A N/A W26G39 N/A  
WANTAGH N/A 43 39 87 W22 N/A  
HEMPSTEAD N/A 43 43 100 SW17 29.38  
MATINECOCK PT N/A 43 N/A N/A W31G37 N/A  
FARMINGDALE CLOUDY 46 41 82 W21G30 29.33R  
MACARTHUR/ISP CLOUDY 45 44 97 W22G30 29.31R  
STONY BROOK N/A 46 43 87 W10G23 N/A  
SHIRLEY CLOUDY 46 43 89 SW10 29.29F  
MT SINAI HARB N/A N/A N/A N/A W12G23 N/A  
WESTHAMPTON LGT RAIN 44 43 96 SW16G25 29.29F  
EAST HAMPTON CLOUDY 47 46 97 SW12G23 29.29F FOG  
SOUTHOLD N/A 48 46 93 SW14 N/A  
MONTAUK N/A 49 48 97 SW13G22 29.32S  

 
 
NYZ052-065-067-271300-  
HUDSON VALLEY  
 
CITY SKY/WX TMP DP RH WIND PRES REMARKS
 
WHITE PLAINS MOCLDY 42 39 89 W9G26 29.30R  
LARCHMONT HARB N/A 43 N/A N/A SW26G35 N/A  
CROTON ON HUDS N/A 43 N/A N/A W16G26 N/A  
SOMERS N/A 41 39 93 W12 N/A  
BREWSTER N/A 43 41 93 NW10 N/A  
NEWBURGH LGT RAIN 39 39 100 W12G21 29.28F FOG WCI 32  
MONTGOMERY CLOUDY 39 36 89 SW15 29.30R WCI 31  
OTISVILLE N/A 37 36 93 W9 N/A WCI 31  
WARWICK N/A 39 37 93 W12 N/A WCI 32  
SUFFERN N/A 41 37 87 SW6 N/A  
POUGHKEEPSIE CLOUDY 42 39 89 SW5 29.26F  
ALBANY LGT RAIN 41 37 86 VRB6 29.24F  

 
 
NJZ001-105-106-008-010-013-015-019>022-104-271300-  
NEW JERSEY  
 
CITY SKY/WX TMP DP RH WIND PRES REMARKS
 
NEWARK/LIBERTY MOCLDY 42 36 79 W20G36 29.39R  
TETERBORO CLOUDY 42 36 79 W18G28 29.35R  
CALDWELL CLOUDY 43 36 76 W14G22 29.38R  
SOMERVILLE LGT RAIN 39 35 86 W8G20 29.42R WCI 33  
LINDEN DRIZZLE 41 36 81 W23G31 29.41R  
PERTH AMBOY N/A 41 N/A N/A W29G39 N/A  
SUSSEX LGT RAIN 40 35 83 SW10G22 29.36R WCI 33  
ANDOVER N/A 38 34 85 SW13G21 29.39R WCI 30  
TRENTON CLOUDY 39 30 70 W18G31 29.47R WCI 30  
MILLVILLE FAIR 40 29 64 W20G29 29.55R WCI 30  
ATLANTIC CITY CLOUDY 42 32 67 W17G31 29.52  
WRIGHTSTOWN CLOUDY 41 36 81 W20G26 29.48  
TOMS RIVER CLOUDY 41 41 100 W17G24 29.48R  
BELMAR LGT RAIN 40 38 93 W18G37 29.44R WCI 31  

 
 
PAZ047>061-062-071-271300-  
EASTERN PENNSYLVANIA  
 
CITY SKY/WX TMP DP RH WIND PRES REMARKS
 
PHILADELPHIA MOCLDY 40 29 64 W22G33 29.52R WCI 30  
ALLENTOWN CLOUDY 38 29 70 W20G28 29.47R WCI 28  
SCRANTON LGT SNOW 32 30 92 SW16G25 29.43R VSB 1 WCI 21  

 
 
CTZ002-004>006-009-010-012-RIZ004-006-007-MAZ004-011-015-271300-  
SOUTHERN NEW ENGLAND  
 
IN CT  
 
CITY SKY/WX TMP DP RH WIND PRES REMARKS
 
BRADLEY INTL RAIN 43 42 97 N5 29.25F FOG  
HARTFORD RAIN 46 44 93 CALM 29.25F FOG  
DANBURY CLOUDY 44 43 96 W9 29.26F FOG  
WTRBURY/OXFORD LGT RAIN 46 45 93 S8 29.21F VSB 1/4  
NORWALK HARBOR N/A 41 N/A N/A SW21 N/A  
BRIDGEPORT CLOUDY 44 42 93 SW18 29.26S  
MERIDEN RAIN 47 46 97 SE6 29.23F FOG  
NEW HAVEN LGT RAIN 48 47 96 S10G18 29.25F  
CHESTER LGT RAIN 48 48 100 S9G15 29.26F VSB 1/4  
GROTON CLOUDY 45 45 100 S15 29.28F  
WILLIMANTIC LGT RAIN 46 44 93 VRB3 29.27F FOG  
 
IN RI  
 
CITY SKY/WX TMP DP RH WIND PRES REMARKS
 
PROVIDENCE RAIN 49 48 97 S7 29.30F FOG  
BLOCK ISLAND LGT RAIN 49 49 100 S16G30 29.33F FOG  
WESTERLY CLOUDY 50 47 89 S14 29.30F FOG  
 
IN MA  
 
CITY SKY/WX TMP DP RH WIND PRES REMARKS
 
BOSTON LGT RAIN 45 41 86 E24 29.34F FOG  
WORCESTER LGT RAIN 40 38 93 E9G23 29.28F VSB 1/2 WCI 34  
WESTFIELD HVY RAIN 42 40 92 N7 29.25F  
PROVINCETOWN LGT RAIN 45 45 100 E18G25 29.40F  
NANTUCKET FOG 48 47 96 SE18 29.39F VSB 1  

 
 
ANZ330-335-338-340-345-350-353-355-271300-  
COASTAL MARINE OBSERVATIONS  
 
 
STATION/POSITION TIME SKY/WX TEMP WIND PRES VSBY WAVE
 
AIR SEA DIR/SP/G HT/PER  
(UTC) (F) (DEG/KT/KT) (MB) (MI) (FT/S)  
NY HARB ENTRANCE 1150 43 260/ 25/ 33 995.2 6/ 5  
20 S FIRE ISLAND 1050 46 44 993.2 7/ 8  
GREAT SOUTH BAY NOT AVBL  
23 SSW MONTAUK P NOT AVBL  
15 E BARNEGAT LI 1130 44 N/A 7/ 5  
HUDSON CANYON 1150 45 45 997.1 7/ 5  
KINGS POINT 1130 43 42 300/ 16/ 18 993.5  
EXECUTION ROCKS 1145 42 32 250/ 17/ 27 N/A  
WESTERN LI SOUND 1120 42 240/ 12/ 17 N/A 3/ 5  
CENTRAL LI SOUND NOT AVBL  
ROBBINS REEF 1130 43 280/ 27/ 31 994.2  

 
 
>>>>>>>>>>>>>>>>>>>>>>>>>>>> KEY <<<<<<<<<<<<<<<<<<<<<<<<<<<  
> <  
> SKY/WX - SKY CONDITION/PRESENT WEATHER <  
> TMP - TEMPERATURE IN FAHRENHEIT <  
> DP - DEW POINT IN FAHRENHEIT <  
> RH - RELATIVE HUMIDITY IN PERCENT <  
> WIND - DIRECTION (FROM) AND SPEED IN MPH <  
> PRES - MEAN SEA LEVEL PRESSURE (INCHES OF HG) <  
> WCI - WIND CHILL INDEX <  
> VSB - VISIBILITY IN MILES <  
> HX - HEAT INDEX <  
> TC - TEMPERATURE IN CELSIUS <  
> VRB - VARIABLE WIND DIRECTION <  
> <  
>>>>>>>>>>>>>>>>>>>>>>>>>>>> KEY <<<<<<<<<<<<<<<<<<<<<<<<<<<  
 
 
CLICK HERE TO GO TO PREVIOUS BULLETINS.

The Nexlab NY Page
The Nexlab NJ Page
The Nexlab CT Page Main Text Page